STARLINK-34459

Last updated on Thu Jul 03 2025 00:02:07 GMT+0000 (Coordinated Universal Time)

1 64449U 25130M 25183.58335648 -.01088388 00000+0 -79696-2 0 9995 2 64449 53.1562 179.7661 0001152 67.3283 56.7237 15.75073862 3520
UTC large
Height (km)
Speed (km/s)
/
Latitude / Longitude
Inclination (degrees)
Orbital Period (minutes)
Azimuth
Elevation
Range (km)
Doppler Factor

Next 0 passes for location: London (51.5072 / 0.1276)

Sorry there are no passes over London.